Weather reports worldwide

Advertisment
Valdepena, Spain (8351): temperature & dewpoint: 20.06.2019 17:00:00 - 26.06.2019 17:00:00 (CEST)Valdepena, Spain (8351): wind speed & gusts: 20.06.2019 17:00:00 - 26.06.2019 17:00:00 (CEST)Valdepena, Spain (8351): wind direction: 20.06.2019 17:00:00 - 26.06.2019 17:00:00 (CEST)Valdepena, Spain (8351): reduced air pressure: 20.06.2019 17:00:00 - 26.06.2019 17:00:00 (CEST)Valdepena, Spain (8351): visibility: 20.06.2019 17:00:00 - 26.06.2019 17:00:00 (CEST)Valdepena, Spain (8351): sunshine duration: 20.06.2019 17:00:00 - 26.06.2019 17:00:00 (CEST)Valdepena, Spain (8351): precipitation: 20.06.2019 17:00:00 - 26.06.2019 17:00:00 (CEST)
Date & Time tt [°C] td [°C] ff [km/h] ff [kn] fx [km/h] fx [kn] dd ppp [hPa] vv [km] sd [min] rr [mm]
26.06.2019 17:00:00 - - - - - - - - - - -
26.06.2019 16:00:00 - - - - - - - - - - -
26.06.2019 15:00:00 33,8 7,7 6 3 19 10 WNW 1010,5 3,6 60 0,0
26.06.2019 14:00:00 32,4 8,7 5 3 15 8 ENE 1011,6 3,6 60 -
26.06.2019 13:00:00 31,5 9,0 4 2 16 9 N 1012,7 3,5 60 0,0
26.06.2019 12:00:00 30,1 9,6 5 3 14 7 NE 1013,6 3,6 60 0,0
26.06.2019 11:00:00 28,0 9,3 4 2 13 7 N 1014,1 3,7 60 0,0
26.06.2019 10:00:00 26,7 8,7 3 2 11 6 NNE 1014,6 6 58 0,0
26.06.2019 09:00:00 23,8 9,4 4 2 10 5 NNE 1015,1 3,5 5 0,0
26.06.2019 08:00:00 21,2 9,4 4 2 10 5 NNE 1015,4 3,3 20 -
26.06.2019 07:00:00 19,8 9,0 3 1 6 3 N 1015,4 3,2 3 0,0
26.06.2019 06:00:00 20,5 8,8 2 1 6 3 N 1015,0 3,3 0 0,0
26.06.2019 05:00:00 21,4 8,9 2 1 11 6 ESE 1014,2 3,3 0 0,0
26.06.2019 04:00:00 22,3 8,4 3 1 9 5 SE 1013,6 3,3 0 0,0
26.06.2019 03:00:00 23,5 7,1 3 2 9 5 N 1013,2 3,4 0 0,0
26.06.2019 02:00:00 25,1 7,3 4 2 9 5 E 1013,1 3,5 0 -
26.06.2019 01:00:00 25,5 7,1 5 3 11 6 SE 1012,9 3,4 0 0,0
26.06.2019 00:00:00 26,8 6,7 4 2 9 5 ESE 1012,4 3,4 0 0,0
25.06.2019 23:00:00 28,3 6,4 6 4 12 6 SSE 1011,6 3,4 0 0,0
25.06.2019 22:00:00 30,4 6,2 5 3 19 10 S 1010,2 3,3 0 0,0
25.06.2019 21:00:00 32,6 5,1 9 5 21 11 SSW 1008,7 3,3 0 0,0
25.06.2019 20:00:00 34,9 6,2 6 4 21 11 SSW 1007,6 3,4 0 -
25.06.2019 19:00:00 35,2 6,4 11 6 22 12 S 1007,4 3,3 0 0,0
25.06.2019 18:00:00 35,1 6,4 7 4 25 13 SSW 1007,6 3,4 11 0,0
25.06.2019 17:00:00 35,1 6,4 8 5 27 15 S 1007,9 3,3 60 0,0
25.06.2019 16:00:00 34,8 6,1 9 5 29 16 S 1008,8 3,2 60 0,0
25.06.2019 15:00:00 34,1 6,4 11 6 28 15 S 1009,4 3,3 60 0,0
25.06.2019 14:00:00 33,2 7,3 4 2 20 11 SW 1010,2 3,2 60 -
25.06.2019 13:00:00 31,7 7,4 3 2 22 12 NNW 1011,4 3,5 60 0,0
25.06.2019 12:00:00 30,0 7,8 7 4 16 9 SSE 1012,1 3,4 60 0,0
25.06.2019 11:00:00 27,8 9,2 3 2 11 6 WSW 1012,9 3,2 60 0,0
25.06.2019 10:00:00 25,6 9,8 5 3 10 5 S 1013,7 3,4 54 0,0
25.06.2019 09:00:00 22,9 10,0 3 1 8 4 ENE 1014,4 3,4 7 0,0
25.06.2019 08:00:00 20,2 7,3 3 2 10 5 N 1014,9 3,2 14 -
25.06.2019 07:00:00 18,0 5,9 4 2 11 6 NNE 1014,8 3,3 0 0,0
25.06.2019 06:00:00 19,3 6,4 2 1 9 5 E 1013,9 3,3 0 0,0
25.06.2019 05:00:00 19,2 5,3 5 3 10 5 NNE 1013,8 3,3 0 0,0
25.06.2019 04:00:00 20,8 5,1 2 1 5 3 WNW 1013,5 3,3 0 0,0
25.06.2019 03:00:00 21,7 5,1 1 1 8 4 ESE 1013,2 3,4 0 0,0
25.06.2019 02:00:00 22,1 4,6 3 2 8 4 ESE 1013,1 3,3 0 -
25.06.2019 01:00:00 22,7 3,8 2 1 10 5 S 1013,0 3,4 0 0,0
25.06.2019 00:00:00 24,4 3,0 5 3 9 5 SE 1012,5 3,4 0 0,0
24.06.2019 23:00:00 25,6 1,7 4 2 16 9 SE 1012,1 3,2 0 0,0
24.06.2019 22:00:00 27,2 1,5 8 4 16 9 SSE 1010,7 3,4 0 0,0
24.06.2019 21:00:00 29,4 4,8 10 5 26 14 SSW 1009,6 3,4 0 0,0
24.06.2019 20:00:00 30,8 7,3 11 6 26 14 S 1008,6 3,3 0 -
24.06.2019 19:00:00 31,7 6,7 13 7 28 15 S 1008,0 3,2 0 0,0
24.06.2019 18:00:00 32,1 7,0 12 7 27 15 S 1007,9 3,1 10 0,0
24.06.2019 17:00:00 33,0 8,4 8 5 25 14 SSE 1007,7 3,3 60 0,0
24.06.2019 16:00:00 32,1 8,4 5 3 14 7 SSW 1008,0 3,2 40 0,0
24.06.2019 15:00:00 31,4 7,1 5 3 22 12 W 1008,4 3,3 44 0,0
24.06.2019 14:00:00 31,2 7,0 5 3 18 10 ENE 1008,8 3,2 60 -
24.06.2019 13:00:00 30,2 6,7 5 3 22 12 SSW 1009,7 3,2 57 0,0
24.06.2019 12:00:00 28,6 6,1 3 2 12 7 WSW 1010,4 3,3 60 0,0
24.06.2019 11:00:00 26,6 5,5 3 2 10 5 SW 1011,1 3,2 38 0,0
24.06.2019 10:00:00 25,1 7,7 2 1 13 7 S 1011,6 3,2 41 0,0
24.06.2019 09:00:00 23,3 10,6 5 3 13 7 SE 1011,9 3,1 5 0,0
24.06.2019 08:00:00 20,8 12,2 4 2 15 8 SSE 1012,3 3,0 0 -
24.06.2019 07:00:00 19,9 11,7 4 2 11 6 E 1012,0 3,1 0 0,0
24.06.2019 06:00:00 20,4 11,3 6 3 14 8 SSE 1011,6 3,1 0 0,0
24.06.2019 05:00:00 21,2 10,0 5 3 15 8 SSE 1011,5 3,1 0 0,0
24.06.2019 04:00:00 21,8 6,8 3 2 11 6 SSE 1011,4 3,2 0 0,0
24.06.2019 03:00:00 22,5 4,5 3 2 11 6 S 1011,4 3,3 0 0,0
24.06.2019 02:00:00 24,3 4,6 6 4 15 8 SSE 1010,8 3,4 0 -
24.06.2019 01:00:00 24,7 4,5 8 5 14 7 SSE 1010,5 3,4 0 0,0
24.06.2019 00:00:00 25,6 2,9 7 4 14 8 SSE 1010,0 3,4 0 0,0
23.06.2019 23:00:00 27,4 1,1 5 3 14 7 S 1009,1 3,4 0 0,0
23.06.2019 22:00:00 29,4 0,9 5 3 14 8 SSW 1008,1 3,4 0 0,0
23.06.2019 21:00:00 31,1 0,4 4 2 16 9 WSW 1006,8 3,3 0 0,0
23.06.2019 20:00:00 33,9 1,7 4 2 19 10 SW 1005,3 3,3 0 -
23.06.2019 19:00:00 34,9 1,3 3 2 25 14 SW 1004,7 3,3 0 0,0
23.06.2019 18:00:00 34,9 2,5 5 3 23 12 S 1004,9 3,3 11 0,0
23.06.2019 17:00:00 34,6 3,2 4 2 22 12 WSW 1005,7 3,4 60 0,0
23.06.2019 16:00:00 34,3 3,0 6 3 23 12 SW 1006,5 3,3 60 0,0
23.06.2019 15:00:00 33,6 3,4 5 3 17 9 E 1007,4 3,1 60 0,0
23.06.2019 14:00:00 32,4 4,3 5 3 18 10 SSW 1008,4 3,4 60 -
23.06.2019 13:00:00 31,3 4,1 5 3 16 9 SSW 1009,4 3,3 60 0,0
23.06.2019 12:00:00 29,7 5,8 5 3 14 8 SSE 1010,2 3,3 60 0,0
23.06.2019 11:00:00 28,2 6,8 4 2 14 7 S 1010,8 3,6 60 0,0
23.06.2019 10:00:00 26,1 6,1 3 1 13 7 W 1011,4 3,6 60 0,0
23.06.2019 09:00:00 23,0 7,1 3 2 9 5 SE 1012,6 3,3 7 0,0
23.06.2019 08:00:00 20,7 8,0 5 3 11 6 E 1013,0 3,2 24 -
23.06.2019 07:00:00 19,0 7,4 3 1 14 8 NNE 1013,2 3,3 4 0,0
23.06.2019 06:00:00 19,6 7,0 4 2 15 8 NE 1012,5 3,3 0 0,0
23.06.2019 05:00:00 20,3 5,9 4 2 13 7 SE 1012,0 3,3 0 0,0
23.06.2019 04:00:00 21,1 4,1 3 2 14 8 S 1011,7 3,3 0 0,0
23.06.2019 03:00:00 22,7 3,2 5 3 16 9 SE 1011,2 3,4 0 0,0
23.06.2019 02:00:00 22,2 2,3 5 3 9 5 SE 1011,6 2,9 0 -
23.06.2019 01:00:00 22,7 2,3 3 2 6 3 SE 1011,8 3,4 0 0,0
23.06.2019 00:00:00 24,0 0,9 2 1 8 5 S 1011,2 3,4 0 0,0
22.06.2019 23:00:00 25,2 0,6 4 2 9 5 SSE 1010,7 3,4 0 0,0
22.06.2019 22:00:00 26,9 -0,3 5 3 11 6 SE 1009,9 3,4 0 0,0
22.06.2019 21:00:00 29,8 -1,7 6 3 21 11 SSW 1008,5 3,4 20 0,0
22.06.2019 20:00:00 31,4 -1,4 7 4 22 12 SSW 1007,9 3,5 1 -
22.06.2019 19:00:00 31,7 0,0 7 4 25 14 S 1007,7 3,3 0 0,0
22.06.2019 18:00:00 31,9 0,0 6 3 27 14 S 1008,0 3,5 9 0,0
22.06.2019 17:00:00 32,0 0,2 9 5 25 14 S 1008,4 3,4 60 0,0
22.06.2019 16:00:00 32,1 1,3 9 5 29 16 S 1008,8 3,4 60 0,0
22.06.2019 15:00:00 31,2 3,2 8 4 26 14 SW 1009,6 3,2 59 0,0
22.06.2019 14:00:00 30,8 2,9 7 4 24 13 S 1010,4 3,3 60 -
22.06.2019 13:00:00 29,8 3,8 9 5 22 12 SSE 1011,3 3,3 60 0,0
22.06.2019 12:00:00 29,0 3,8 7 4 22 12 S 1011,8 3,1 60 0,0
22.06.2019 11:00:00 27,1 3,6 5 3 15 8 SSE 1012,4 3,7 60 0,0
22.06.2019 10:00:00 25,0 3,0 5 3 11 6 SSW 1013,1 3,2 59 0,0
22.06.2019 09:00:00 20,9 2,3 3 1 10 6 N 1014,4 3,3 8 0,0
22.06.2019 08:00:00 17,0 1,1 1 1 10 6 ENE 1015,2 3,2 23 -
22.06.2019 07:00:00 14,3 0,9 3 1 11 6 E 1015,3 3,3 2 0,0
22.06.2019 06:00:00 14,8 0,6 2 1 11 6 NNE 1015,0 3,3 0 0,0
22.06.2019 05:00:00 16,2 0,0 2 1 11 6 E 1014,4 3,4 0 0,0
22.06.2019 04:00:00 17,4 0,0 3 2 8 4 SE 1014,1 3,4 0 0,0
22.06.2019 03:00:00 18,9 0,0 3 1 8 4 ENE 1014,2 3,5 0 0,0
22.06.2019 02:00:00 19,6 0,0 4 2 6 4 SE 1014,2 3,4 0 -
22.06.2019 01:00:00 20,9 0,2 3 1 5 3 N 1013,9 3,4 0 0,0
22.06.2019 00:00:00 21,6 -1,7 1 1 6 3 SW 1013,7 3,5 0 0,0
21.06.2019 23:00:00 22,8 -2,7 3 1 6 3 E 1013,1 3,4 0 0,0
21.06.2019 22:00:00 24,4 -3,0 1 1 8 4 W 1011,9 3,4 0 0,0
21.06.2019 21:00:00 26,9 -2,7 2 1 18 10 W 1010,7 3,5 19 0,0
21.06.2019 20:00:00 28,7 -2,5 4 2 18 10 WSW 1009,9 3,4 3 -
21.06.2019 19:00:00 28,9 -1,2 5 3 21 11 W 1009,4 3,4 0 0,0
21.06.2019 18:00:00 29,0 -0,3 7 4 22 12 WSW 1009,4 3,3 10 0,0
21.06.2019 17:00:00 29,2 1,7 5 3 28 15 WSW 1009,4 3,3 60 0,0
21.06.2019 16:00:00 29,2 1,7 6 3 21 11 WSW 1009,6 3,4 60 0,0
21.06.2019 15:00:00 28,6 1,9 5 3 19 10 W 1010,3 3,4 60 0,0
21.06.2019 14:00:00 28,0 3,6 6 3 21 11 SW 1010,8 3,5 60 -
21.06.2019 13:00:00 26,3 5,8 4 2 16 9 WSW 1011,6 3,3 51 0,0
21.06.2019 12:00:00 25,2 6,8 8 4 18 10 S 1012,3 3,4 60 0,0
21.06.2019 11:00:00 23,6 6,4 4 2 15 8 WNW 1013,1 3,4 60 0,0
21.06.2019 10:00:00 22,0 7,7 5 3 15 8 S 1013,4 3,4 58 0,0
21.06.2019 09:00:00 19,6 8,3 6 4 13 7 S 1013,9 3,4 6 0,0
21.06.2019 08:00:00 17,8 8,1 5 3 11 6 SSE 1014,4 3,3 22 -
21.06.2019 07:00:00 16,1 7,8 5 3 10 6 SSE 1014,5 3,4 5 0,0
21.06.2019 06:00:00 16,9 7,6 4 2 12 6 S 1013,9 3,3 0 0,0
21.06.2019 05:00:00 17,5 7,3 5 3 10 5 SSE 1013,2 3,5 0 0,0
21.06.2019 04:00:00 18,4 7,1 5 3 12 6 S 1013,0 3,4 0 0,0
21.06.2019 03:00:00 19,2 7,3 4 2 10 5 SSW 1012,5 3,5 0 0,0
21.06.2019 02:00:00 19,8 8,1 4 2 11 6 S 1012,6 3,4 0 -
21.06.2019 01:00:00 20,0 7,4 4 2 11 6 SE 1012,6 3,4 0 0,0
21.06.2019 00:00:00 21,1 7,3 5 3 14 7 S 1012,2 3,4 0 0,0
20.06.2019 23:00:00 22,7 7,7 6 3 18 10 S 1011,1 3,4 0 0,0
20.06.2019 22:00:00 24,6 7,7 6 4 26 14 S 1010,0 3,4 0 0,0
20.06.2019 21:00:00 26,4 7,4 12 6 25 14 S 1008,5 3,4 8 0,0
20.06.2019 20:00:00 28,7 4,8 7 4 21 11 SW 1007,4 3,3 0 -
20.06.2019 19:00:00 29,4 4,1 10 5 26 14 SSW 1007,3 3,4 0 0,0
20.06.2019 18:00:00 29,7 0,2 9 5 27 15 SSW 1007,2 3,5 3 0,0
20.06.2019 17:00:00 29,2 3,2 5 3 23 12 WSW 1007,4 3,3 46 0,0

tt = temperature
td = dewpoint
ff = wind speed
fx = gusts
dd = wind direction
ppp = reduced air pressure
vv = visibility
sd = sunshine duration
rr = precipitation

Next stations